EW9634 Weather Reports


Display with metric or nautical units.
time (UTC)temp
F
wind
direction
speed
MPH
gust
MPH
rain 1hr
in
rain 24hr
in
rain mn
in
humidity
%
barometer
mb
20260902141402 83 203 10.0 15.0 0.00 0.00 0.00 69 1013.2
20260902140402 83 180 8.0 10.0 0.00 0.00 0.00 70 1013.3
20260902135402 82 203 6.0 10.0 0.00 0.00 0.00 71 1013.4
20260902134402 81 203 5.0 7.0 0.00 0.00 0.00 72 1013.3
20260902133402 80 180 4.0 7.0 0.00 0.00 0.00 72 1013.2
20260902132402 80 158 4.0 7.0 0.00 0.00 0.00 73 1013.2
20260902131442 79 203 3.0 7.0 0.00 0.00 0.00 74 1013.1
20260902130402 78 158 3.0 7.0 0.00 0.00 0.00 75 1013.1
20260902125402 78 180 4.0 6.0 0.00 0.00 0.00 75 1013.2
20260902124422 77 180 3.0 6.0 0.00 0.00 0.00 76 1013.1
20260902123422 77 203 3.0 9.0 0.00 0.00 0.00 76 1013.0
20260902122402 76 203 4.0 7.0 0.00 0.00 0.00 77 1013.0
20260902121402 76 180 2.0 5.0 0.00 0.00 0.00 77 1012.9
20260902120402 76 203 1.0 3.0 0.00 0.00 0.00 77 1012.9
20260902115401 76 0.0 1.0 0.00 0.00 0.00 77 1012.8
20260902114402 76 203 2.0 5.0 0.00 0.00 0.00 76 1012.9
20260902113402 76 180 3.0 7.0 0.00 0.00 0.00 76 1012.8
20260902112422 76 180 2.0 4.0 0.00 0.00 0.00 76 1012.7
20260902111422 76 158 2.0 5.0 0.00 0.00 0.00 75 1012.7
20260902110402 76 203 2.0 6.0 0.00 0.00 0.00 75 1012.7
20260902105401 77 0.0 1.0 0.00 0.00 0.00 74 1012.6
20260902104422 77 180 1.0 2.0 0.00 0.00 0.00 73 1012.5
20260902103401 77 180 2.0 7.0 0.00 0.00 0.00 73 1012.5
20260902102307 77 203 4.0 5.0 0.00 0.00 0.00 73 1012.4
20260902101303 77 203 1.0 2.0 0.00 0.00 0.00 73 1012.4
20260902100304 78 203 3.0 6.0 0.00 0.00 0.00 72 1012.4
20260902095422 78 180 3.0 7.0 0.00 0.00 0.00 72 1012.4
20260902094423 78 203 1.0 4.0 0.00 0.00 0.00 71 1012.4
20260902093303 78 203 2.0 3.0 0.00 0.00 0.00 72 1012.3
20260902092305 78 180 2.0 5.0 0.00 0.00 0.00 72 1012.3
20260902091303 77 203 1.0 4.0 0.00 0.00 0.00 73 1012.2
20260902090304 77 180 2.0 4.0 0.00 0.00 0.00 73 1012.2
20260902085306 77 180 1.0 2.0 0.00 0.00 0.00 75 1012.4
20260902084304 76 180 1.0 4.0 0.00 0.00 0.00 75 1012.2
20260902083304 76 158 2.0 5.0 0.00 0.00 0.00 75 1012.1
20260902082324 75 180 1.0 2.0 0.00 0.00 0.00 76 1012.1
20260902081323 75 158 2.0 4.0 0.00 0.00 0.00 77 1012.0
20260902080303 75 0.0 1.0 0.00 0.00 0.00 76 1011.8
20260902075306 76 0.0 1.0 0.00 0.00 0.00 74 1011.8
20260902074343 76 0.0 1.0 0.00 0.00 0.00 74 1011.8
20260902073303 77 0.0 1.0 0.00 0.00 0.00 73 1011.8
20260902072309 77 0.0 1.0 0.00 0.00 0.00 72 1011.9
20260902071303 77 0.0 1.0 0.00 0.00 0.00 72 1011.7
20260902070323 77 0.0 1.0 0.00 0.00 0.00 72 1011.8
20260902065306 77 158 1.0 2.0 0.00 0.00 0.00 72 1011.9
20260902064303 77 158 1.0 2.0 0.00 0.00 0.00 73 1012.0
20260902063303 77 0.0 1.0 0.00 0.00 0.00 73 1012.0
20260902062306 77 0.0 1.0 0.00 0.00 0.00 73 1012.0
20260902061303 77 0.0 1.0 0.00 0.00 0.00 72 1012.0
20260902060303 77 0.0 1.0 0.00 0.00 0.00 73 1011.8
20260902055306 77 0.0 1.0 0.00 0.00 0.00 73 1011.9
20260902054303 78 0.0 0.0 0.00 0.00 0.00 71 1011.8
20260902053304 78 0.0 0.0 0.00 0.00 0.00 69 1011.8
20260902052323 79 0.0 1.0 0.00 0.00 0.00 68 1011.8
20260902051303 79 0.0 1.0 0.00 0.00 0.00 67 1011.8
20260902050303 80 180 1.0 3.0 0.00 0.00 0.00 68 1011.7
20260902045402 80 0.0 0.0 0.00 0.00 0.00 67 1012.0
20260902044402 80 0.0 1.0 0.00 0.00 0.00 66 1011.9
20260902043402 80 0.0 1.0 0.00 0.00 0.00 66 1011.9
20260902042402 81 0.0 1.0 0.00 0.00 0.00 65 1012.0
20260902041401 81 158 1.0 3.0 0.00 0.00 0.00 64 1011.9
20260902040404 81 180 1.0 2.0 0.00 0.00 0.00 65 1011.9
20260902035403 81 180 1.0 2.0 0.00 0.00 0.00 65 1011.9
20260902034404 82 158 3.0 4.0 0.00 0.00 0.00 64 1011.9
20260902033403 81 0.0 2.0 0.00 0.00 0.00 66 1011.8
20260902032404 80 180 1.0 2.0 0.00 0.00 0.00 67 1011.7
20260902031404 81 180 1.0 1.0 0.00 0.00 0.00 67 1011.5
20260902030424 81 180 1.0 2.0 0.00 0.00 0.00 66 1011.3
20260902025403 82 180 1.0 2.0 0.00 0.00 0.00 66 1011.3
20260902024404 81 158 1.0 2.0 0.00 0.00 0.00 68 1011.1
20260902023404 80 158 1.0 2.0 0.00 0.00 0.00 70 1011.1
20260902022403 80 158 1.0 3.0 0.00 0.00 0.00 71 1011.1
20260902021403 80 0.0 1.0 0.00 0.00 0.00 71 1011.0
20260902020404 80 0.0 0.0 0.00 0.00 0.00 72 1010.9
20260902015403 80 0.0 1.0 0.00 0.00 0.00 73 1010.8
20260902014404 80 0.0 0.0 0.00 0.00 0.00 74 1010.6
20260902013403 81 0.0 1.0 0.00 0.00 0.00 75 1010.6
20260902012403 82 0.0 0.0 0.00 0.00 0.00 71 1010.5
20260902011403 83 0.0 1.0 0.00 0.00 0.00 65 1010.4
20260902010403 84 0.0 1.0 0.00 0.00 0.00 65 1010.5
20260902005404 84 0.0 0.0 0.00 0.00 0.00 66 1010.5
20260902004403 86 158 1.0 3.0 0.00 0.00 0.00 64 1010.5
20260902003403 88 0.0 0.0 0.00 0.00 0.00 66 1010.6
20260902002403 89 0.0 1.0 0.00 0.00 0.00 56 1010.6
20260902001423 90 0.0 0.0 0.00 0.00 0.00 55 1010.7
20260902000423 91 0.0 0.0 0.00 0.00 0.00 59 1010.8
20260901235423 93 158 1.0 2.0 0.00 0.00 0.00 48 1010.8
20260901234403 93 158 1.0 3.0 0.00 0.00 0.00 50 1010.9
20260901233403 94 0.0 1.0 0.00 0.00 0.00 45 1011.0
20260901232403 94 203 1.0 2.0 0.00 0.00 0.00 45 1011.0
20260901231403 95 180 1.0 3.0 0.00 0.00 0.00 45 1011.0
20260901230403 95 225 2.0 4.0 0.00 0.00 0.00 44 1010.9
20260901225403 96 203 3.0 5.0 0.00 0.00 0.00 42 1010.9
20260901224423 96 158 6.0 10.0 0.00 0.00 0.00 41 1011.1
20260901223403 96 180 8.0 14.0 0.00 0.00 0.00 40 1011.0
20260901222403 96 180 3.0 5.0 0.00 0.00 0.00 42 1011.2
20260901221403 96 225 6.0 8.0 0.00 0.00 0.00 40 1011.2
20260901220403 97 158 5.0 7.0 0.00 0.00 0.00 42 1011.3
20260901215403 97 203 5.0 8.0 0.00 0.00 0.00 40 1011.2
20260901214403 97 203 8.0 11.0 0.00 0.00 0.00 40 1011.3
20260901213543 97 158 7.0 10.0 0.00 0.00 0.00 41 1011.4
20260901212403 97 203 7.0 11.0 0.00 0.00 0.00 39 1011.4
20260901211403 97 225 4.0 7.0 0.00 0.00 0.00 39 1011.6
20260901210403 97 225 8.0 13.0 0.00 0.00 0.00 40 1011.6
20260901205403 97 225 11.0 15.0 0.00 0.00 0.00 38 1011.8
20260901204402 97 135 9.0 12.0 0.00 0.00 0.00 38 1011.8
20260901203403 97 225 8.0 10.0 0.00 0.00 0.00 39 1012.0
20260901202402 97 203 7.0 10.0 0.00 0.00 0.00 37 1012.1
20260901201402 97 203 11.0 17.0 0.00 0.00 0.00 38 1012.1
20260901200423 97 203 6.0 10.0 0.00 0.00 0.00 40 1012.3
20260901195424 97 225 6.0 11.0 0.00 0.00 0.00 40 1012.3
20260901194402 97 225 4.0 7.0 0.00 0.00 0.00 39 1012.4
20260901193402 97 158 10.0 18.0 0.00 0.00 0.00 36 1012.4
20260901192402 96 203 6.0 7.0 0.00 0.00 0.00 41 1012.5
20260901191402 97 203 4.0 8.0 0.00 0.00 0.00 41 1012.7
20260901190403 96 203 6.0 8.0 0.00 0.00 0.00 43 1012.8
20260901185402 96 248 8.0 12.0 0.00 0.00 0.00 47 1012.8
20260901184402 95 248 4.0 8.0 0.00 0.00 0.00 45 1012.9
20260901183403 95 203 8.0 10.0 0.00 0.00 0.00 44 1013.1
20260901182402 95 225 5.0 8.0 0.00 0.00 0.00 45 1013.2
20260901181422 96 203 5.0 9.0 0.00 0.00 0.00 44 1013.5
20260901180403 95 225 4.0 5.0 0.00 0.00 0.00 46 1013.6
20260901175402 95 225 5.0 8.0 0.00 0.00 0.00 46 1013.7
20260901174403 94 225 7.0 11.0 0.00 0.00 0.00 49 1013.7
20260901173402 94 225 7.0 12.0 0.00 0.00 0.00 48 1013.8
20260901172422 94 225 9.0 12.0 0.00 0.00 0.00 50 1013.9
20260901171402 93 225 6.0 8.0 0.00 0.00 0.00 51 1014.0
20260901170402 93 225 6.0 7.0 0.00 0.00 0.00 50 1014.1
20260901165402 92 203 6.0 8.0 0.00 0.00 0.00 52 1014.2
20260901164402 92 225 4.0 8.0 0.00 0.00 0.00 53 1014.3
20260901163402 91 225 9.0 13.0 0.00 0.00 0.00 51 1014.3
20260901162403 91 225 8.0 9.0 0.00 0.00 0.00 54 1014.3
20260901161402 90 203 6.0 10.0 0.00 0.00 0.00 55 1014.4
20260901160402 89 203 8.0 10.0 0.00 0.00 0.00 55 1014.4
20260901155402 89 203 7.0 12.0 0.00 0.00 0.00 56 1014.4
20260901154402 88 203 7.0 12.0 0.00 0.00 0.00 57 1014.4
20260901153402 87 203 5.0 6.0 0.00 0.00 0.00 58 1014.3
20260901152402 86 180 4.0 8.0 0.00 0.00 0.00 60 1014.3
20260901151402 86 158 5.0 9.0 0.00 0.00 0.00 60 1014.3
20260901150402 85 158 3.0 6.0 0.00 0.00 0.00 62 1014.2
20260901145403 84 180 4.0 8.0 0.00 0.00 0.00 64 1014.4
20260901144402 83 180 6.0 10.0 0.00 0.00 0.00 64 1014.4
20260901143402 82 203 4.0 7.0 0.00 0.00 0.00 66 1014.3
20260901142402 82 225 2.0 3.0 0.00 0.00 0.00 68 1014.4